Location: Pcim
(49.7500°N, 19.9670°E)
Time: 01:07:38
(UTC+02:00)

EO-79 - Visible Passes

Search period start: 25 April 2024 00:00
Search period end: 05 May 2024 00:00
Orbit: 565 x 577 km, 98.0° (Epoch: 24 April)

Date Brightness Start Highest point End Pass type
(mag) Time Alt. Az. Time Alt. Az. Time Alt. Az.
25 Apr ? 03:08:42 10° NE 03:12:13 27° E 03:15:39 10° SSE visible
25 Apr ? 04:43:39 10° N 04:47:22 34° WNW 04:51:04 10° SW visible
26 Apr ? 03:10:45 10° NE 03:14:19 28° E 03:17:51 10° SSE visible
26 Apr ? 04:45:46 10° N 04:49:26 32° WNW 04:53:06 10° SW visible
27 Apr ? 03:12:46 10° NE 03:16:23 29° E 03:19:58 10° SSE visible
28 Apr ? 03:14:46 10° NNE 03:18:25 30° E 03:22:03 10° SSE visible
29 Apr ? 03:16:44 10° NNE 03:20:25 31° E 03:24:05 10° SSE visible
30 Apr ? 03:18:40 10° NNE 03:22:24 33° E 03:26:06 10° SSE visible
01 May ? 03:20:35 10° NNE 03:24:21 34° E 03:28:05 10° SSE visible
02 May ? 03:22:28 10° NNE 03:26:15 35° E 03:30:02 10° SSE visible
03 May ? 03:24:19 10° NNE 03:28:08 37° E 03:31:56 10° SSE visible
04 May ? 03:26:08 10° NNE 03:30:00 38° E 03:33:49 10° SSE visible
